Time,TemperatureF,DewpointF,PressureIn,WindDirection,WindDirectionDegrees,WindSpeedMPH,WindSpeedGustMPH,Humidity,HourlyPrecipIn,Conditions,Clouds,dailyrainin,SolarRadiationWatts/m^2,SoftwareType,DateUTC
2013-06-23 00:29:00,68.6,59.9,30.15,SSE,157,0.0,8.0,74,0.00,CLR,,0.00,0.0,WeatherDisplay:10.37,2013-06-23 04:29:00,
2013-06-23 01:00:00,68.1,59.9,30.15,SSE,164,2.0,6.0,75,0.00,CLR,,0.00,0.0,WeatherDisplay:10.37,2013-06-23 05:00:00,
2013-06-23 01:29:00,68.0,60.2,30.15,SSE,162,0.0,4.0,76,0.00,CLR,,0.00,0.0,WeatherDisplay:10.37,2013-06-23 05:29:00,
2013-06-23 02:00:00,67.8,60.3,30.15,SSE,164,1.0,4.0,77,0.00,CLR,,0.00,0.0,WeatherDisplay:10.37,2013-06-23 06:00:00,
2013-06-23 02:29:00,67.5,60.4,30.14,SSE,161,1.0,8.0,78,0.00,CLR,,0.00,0.0,WeatherDisplay:10.37,2013-06-23 06:29:00,
2013-06-23 03:00:00,66.6,61.6,30.13,SSE,165,0.0,4.0,84,0.00,CLR,,0.00,0.0,WeatherDisplay:10.37,2013-06-23 07:00:00,
2013-06-23 03:29:00,64.8,62.1,30.12,SSE,165,0.0,1.0,91,0.00,CLR,,0.00,0.0,WeatherDisplay:10.37,2013-06-23 07:29:00,
2013-06-23 04:00:00,64.3,62.2,30.12,SSE,165,0.0,1.0,93,0.01,CLR,,0.01,0.0,WeatherDisplay:10.37,2013-06-23 08:00:00,
2013-06-23 04:29:00,63.7,61.9,30.11,SSE,165,0.0,1.0,94,0.00,CLR,,0.01,0.0,WeatherDisplay:10.37,2013-06-23 08:29:00,
2013-06-23 05:00:00,63.3,61.8,30.11,SSE,165,0.0,1.0,95,0.00,OVC,,0.01,0.0,WeatherDisplay:10.37,2013-06-23 09:00:00,
2013-06-23 05:29:00,62.7,60.9,30.11,SSE,165,0.0,2.0,94,0.00,BKN,,0.01,18.0,WeatherDisplay:10.37,2013-06-23 09:29:00,
2013-06-23 06:00:00,63.0,61.5,30.11,SSE,165,1.0,3.0,95,0.00,SCT,,0.01,63.0,WeatherDisplay:10.37,2013-06-23 10:00:00,
2013-06-23 06:29:00,63.9,62.4,30.12,South,185,0.0,5.0,95,0.00,SCT,,0.01,114.0,WeatherDisplay:10.37,2013-06-23 10:29:00,
2013-06-23 07:00:00,65.6,62.9,30.12,South,179,0.0,4.0,91,0.00,SCT,,0.01,185.0,WeatherDisplay:10.37,2013-06-23 11:00:00,
2013-06-23 07:29:00,67.8,64.1,30.12,SSE,165,3.0,6.0,88,0.00,FEW,,0.01,276.0,WeatherDisplay:10.37,2013-06-23 11:29:00,
2013-06-23 08:00:00,70.2,64.8,30.13,SSE,165,1.0,8.0,83,0.00,SCT,,0.01,304.0,WeatherDisplay:10.37,2013-06-23 12:00:00,
2013-06-23 08:29:00,72.4,66.2,30.13,South,175,3.0,8.0,81,0.00,SCT,,0.01,411.0,WeatherDisplay:10.37,2013-06-23 12:29:00,
2013-06-23 09:00:00,73.9,67.7,30.13,South,172,2.0,5.0,81,0.00,FEW,,0.01,540.0,WeatherDisplay:10.37,2013-06-23 13:00:00,
2013-06-23 09:29:00,78.0,71.0,30.12,SSE,154,0.0,7.0,79,0.00,FEW,,0.01,364.0,WeatherDisplay:10.37,2013-06-23 13:29:00,
2013-06-23 10:00:00,79.9,72.0,30.11,South,169,0.0,6.0,77,0.00,FEW,,0.01,682.0,WeatherDisplay:10.37,2013-06-23 14:00:00,
2013-06-23 10:29:00,81.4,72.3,30.10,SSE,168,1.0,6.0,74,0.00,FEW,,0.01,715.0,WeatherDisplay:10.37,2013-06-23 14:29:00,
2013-06-23 11:00:00,82.5,72.5,30.10,SSE,165,1.0,6.0,72,0.00,FEW,,0.01,747.0,WeatherDisplay:10.37,2013-06-23 15:00:00,
2013-06-23 11:29:00,83.9,73.5,30.09,SSE,165,2.0,9.0,71,0.00,FEW,,0.01,805.0,WeatherDisplay:10.37,2013-06-23 15:29:00,
2013-06-23 12:29:00,86.6,76.9,30.08,SSE,159,0.0,8.0,73,0.00,FEW,,0.01,833.0,WeatherDisplay:10.37,2013-06-23 16:29:00,
2013-06-23 13:00:00,88.1,76.2,30.07,SSE,164,3.0,12.0,68,0.00,FEW,,0.01,842.0,WeatherDisplay:10.37,2013-06-23 17:00:00,
2013-06-23 13:29:00,89.1,77.6,30.05,SSE,159,2.0,9.0,69,0.00,FEW,,0.01,840.0,WeatherDisplay:10.37,2013-06-23 17:29:00,
2013-06-23 14:00:00,89.9,76.1,30.04,SSE,158,6.0,13.0,64,0.00,FEW,,0.01,816.0,WeatherDisplay:10.37,2013-06-23 18:00:00,
2013-06-23 14:29:00,89.8,77.8,30.03,SSE,158,5.0,12.0,68,0.00,FEW,,0.01,735.0,WeatherDisplay:10.37,2013-06-23 18:29:00,
2013-06-23 15:00:00,89.6,77.2,30.01,SSW,197,2.0,16.0,67,0.00,SCT,,0.01,719.0,WeatherDisplay:10.37,2013-06-23 19:00:00,
2013-06-23 15:29:00,89.7,74.9,30.01,South,170,5.0,12.0,62,0.00,SCT,,0.01,598.0,WeatherDisplay:10.37,2013-06-23 19:29:00,
2013-06-23 16:00:00,88.5,75.7,30.00,SSE,165,1.0,17.0,66,0.00,SCT,,0.01,645.0,WeatherDisplay:10.37,2013-06-23 20:00:00,
2013-06-23 16:29:00,88.1,75.3,30.00,SSE,161,2.0,8.0,66,0.00,FEW,,0.01,573.0,WeatherDisplay:10.37,2013-06-23 20:29:00,
2013-06-23 17:00:00,87.1,74.8,29.99,South,170,3.0,17.0,67,0.00,FEW,,0.01,473.0,WeatherDisplay:10.37,2013-06-23 21:00:00,
2013-06-23 17:29:00,86.4,73.2,29.98,South,176,6.0,13.0,65,0.00,BKN,,0.01,86.0,WeatherDisplay:10.37,2013-06-23 21:29:00,
2013-06-23 18:00:00,85.0,73.2,29.97,South,179,1.0,13.0,68,0.00,BKN,,0.01,72.0,WeatherDisplay:10.37,2013-06-23 22:00:00,
2013-06-23 18:29:00,84.1,72.3,29.98,SSE,157,3.0,12.0,68,0.00,BKN,,0.01,86.0,WeatherDisplay:10.37,2013-06-23 22:29:00,
2013-06-23 19:00:00,83.0,71.8,29.99,South,182,2.0,14.0,69,0.00,BKN,,0.01,79.0,WeatherDisplay:10.37,2013-06-23 23:00:00,
2013-06-23 19:29:00,82.2,71.0,29.99,South,169,5.0,14.0,69,0.00,BKN,,0.01,56.0,WeatherDisplay:10.37,2013-06-23 23:29:00,
2013-06-23 20:00:00,80.3,70.9,29.99,South,170,2.0,15.0,73,0.00,BKN,,0.01,14.0,WeatherDisplay:10.37,2013-06-24 00:00:00,
2013-06-23 20:29:00,79.2,70.2,30.00,SSE,157,0.0,9.0,74,0.00,OVC,,0.01,0.0,WeatherDisplay:10.37,2013-06-24 00:29:00,
2013-06-23 21:00:00,78.5,70.3,30.01,SSE,166,2.0,9.0,76,0.00,CLR,,0.01,0.0,WeatherDisplay:10.37,2013-06-24 01:00:00,
2013-06-23 21:29:00,77.4,70.3,30.02,SSE,164,2.0,8.0,79,0.00,CLR,,0.01,0.0,WeatherDisplay:10.37,2013-06-24 01:29:00,
2013-06-23 22:00:00,76.6,70.7,30.03,SSE,164,2.0,7.0,82,0.00,CLR,,0.01,0.0,WeatherDisplay:10.37,2013-06-24 02:00:00,
2013-06-23 22:29:00,76.1,70.6,30.03,South,170,2.0,8.0,83,0.00,CLR,,0.01,0.0,WeatherDisplay:10.37,2013-06-24 02:29:00,
2013-06-23 23:00:00,75.6,70.8,30.02,South,170,2.0,10.0,85,0.00,CLR,,0.01,0.0,WeatherDisplay:10.37,2013-06-24 03:00:00,
2013-06-23 23:29:00,75.3,70.5,30.02,SSE,163,1.0,8.0,85,0.00,CLR,,0.01,0.0,WeatherDisplay:10.37,2013-06-24 03:29:00,